Regional Weather Roundup
Issued by NWS

Home | Current Version | Previous Version | Graphics & Text | Print | Product List | Glossary On
Versions: 1 2 3 4 5 6 7 8 9 10 11 12 13 14 15 16 17 18 19 20 21 22 23 24 25 26 27 28 29 30 31 32 33 34 35 36 37 38 39 40 41 42 43 44 45 46 47 48 49 50
000
ASUS43 KMPX 160410
RWRMN
WEATHER ROUNDUP FOR MINNESOTA
NATIONAL WEATHER SERVICE TWIN CITIES/CHANHASSEN MN
1100 PM CDT MON SEP 15 2014


NOTE: "FAIR" INDICATES FEW OR NO CLOUDS BELOW 12,000 FEET WITH NO
SIGNIFICANT WEATHER AND/OR OBSTRUCTIONS TO VISIBILITY. N/A MEANS
CURRENT SKY AND/OR WEATHER CONDITIONS ARE NOT AVAILABLE.

MNZ060>063-068>070-160500-
   Twin Cities Metro

CITY           SKY/WX    TMP DP  RH WIND       PRES   REMARKS
TWIN CITIES    CLEAR     52  40  63 CALM      30.22S
ST PAUL        CLEAR     47  42  83 CALM      30.23S
CRYSTAL        CLEAR     44  40  85 CALM      30.21S
BLAINE         CLEAR     45  45 100 CALM      30.22R
LAKEVILLE      CLEAR     39  39 100 CALM      30.22S
EDEN PRAIRIE   CLEAR     46  41  82 CALM      30.21S
SOUTH ST PAUL  CLEAR     47  41  81 CALM      30.22S
LAKE ELMO      FAIR      41  41 100 CALM      30.23R
$$
MNZ001>005-007-008-013>017-022>024-027-028-160500-
   Northwest Minnesota

CITY           SKY/WX    TMP DP  RH WIND       PRES   REMARKS
BEMIDJI        CLEAR     47  39  73 SW7       30.11F
HALLOCK        CLEAR     43  39  87 S6        30.04F
ROSEAU         CLEAR     46  41  81 SW7       30.04S
WARROAD        CLEAR     46  41  81 SW7       30.04S
THIEF RVR FALL CLEAR     48  39  71 SW10      30.08S
CROOKSTON      CLEAR     46  43  87 SW9       30.10S
FOSSTON        CLEAR     46  37  71 S9        30.11F
DETROIT LAKES  CLEAR     50  39  66 SW9       30.16S
MOORHEAD       CLEAR     50  43  76 SW7       30.15S
PARK RAPIDS    CLEAR     44  37  76 SW7       30.14F
MAHNOMEN       FAIR      44  38  81 S9        30.12S
$$
MNZ006-009>011-018-025>026-160500-
   North Central Minnesota

CITY           SKY/WX    TMP DP  RH WIND       PRES   REMARKS
BAUDETTE       PTCLDY    46  39  76 S5        30.04F
FLAG ISLAND    CLEAR     54  43  66 SW6       30.00F
INTL FALLS     CLOUDY    43  39  86 CALM      30.06F
WASKISH        CLEAR     48  41  76 CALM      30.07F
BIG FORK       PTCLDY    37  36  93 CALM      30.11S
LONGVILLE      CLEAR     45  41  87 S3        30.14S
GRAND RAPIDS   PTCLDY    45  36  70 S7        30.13S
CRANE LAKE     PTCLDY    37  36  93 S3        30.10F
ORR            PTCLDY    45  34  65 CALM      30.08S
COOK           PTCLDY    45  36  70 SW6       30.10F
WALKER         FAIR      47  37  68 SW6       30.13S
$$
MNZ012-019>021-037-160500-
   Northeast Minnesota

CITY           SKY/WX    TMP DP  RH WIND       PRES   REMARKS
DULUTH         CLEAR     43  35  73 W6        30.15S
ELY            CLEAR     41  36  81 SW3       30.10F
HIBBING        CLEAR     35  31  85 CALM      30.13S
EVELETH        CLEAR     36  36 100 CALM      30.13F
DULUTH HARBOR  CLEAR     46  41  81 SW9       30.16S
TWO HARBORS    CLEAR     41  36  81 W3        30.12F
SILVER BAY     CLEAR     36  36 100 CALM      30.11F
GRAND MARAIS     N/A     50  38  63 NW6       30.09S
G MARAIS ARPRT PTCLDY    39  34  81 SW3       30.10F
$$
MNZ029>031-032-039>041-046>048-054>057-064-160500-
   West Central Minnesota

CITY           SKY/WX    TMP DP  RH WIND       PRES   REMARKS
FERGUS FALLS   CLEAR     45  36  70 S6        30.19R
WHEATON        CLEAR     45  36  70 S9        30.21S
MORRIS         CLEAR     43  37  81 S5        30.19S
ALEXANDRIA     CLEAR     46  38  73 S6        30.20F
ELBOW LAKE     FAIR      44  37  76 S5        30.19S
WADENA         CLEAR     43  36  75 S6        30.17S
GLENWOOD       CLEAR     43  39  87 S5        30.21S
APPLETON       CLEAR     45  41  87 S5        30.21S
BENSON         CLEAR     39  37  93 CALM      30.21S
ORTONVILLE     CLEAR     46  36  66 S5        30.21S
MADISON        CLEAR     45  39  81 SW6       30.22R
WILLMAR        FAIR      45  39  81 CALM      30.23S
$$
MNZ033>034-036-042>043-049>051-058-059-160500-
   Central Minnesota

CITY           SKY/WX    TMP DP  RH WIND       PRES   REMARKS
ST CLOUD       CLEAR     44  40  85 S3        30.21R
SAUK CENTRE    FAIR      41  36  84 CALM      30.21S
PAYNESVILLE    CLEAR     37  36  96 CALM      30.22S
AITKIN         CLEAR     45  37  76 CALM      30.15S
PINE RIVER     CLEAR     37  36  93 CALM      30.18F
BRAINERD       CLEAR     39  37  92 S5        30.18S
STAPLES        CLEAR     39  36  87 S5        30.17S
LONG PRAIRIE   FAIR      39  37  93 S3        30.20S
LITTLE FALLS   CLEAR     41  37  87 CALM      30.19F
LITCHFIELD     CLEAR     45  43  93 CALM      30.23R
BUFFALO        CLEAR     43  39  86 CALM      30.23R
MAPLE LAKE     CLEAR     42  41  97 CALM      30.22S
$$
MNZ037-044-045-052-053-160500-
   East Central Minnesota

CITY           SKY/WX    TMP DP  RH WIND       PRES   REMARKS
PRINCETON      CLEAR     43  39  87 CALM      30.21S
MORA           CLEAR     37  36  93 CALM      30.21F
CAMBRIDGE      CLEAR     43  36  75 CALM      30.19S
RUSH CITY      CLEAR     38  37  94 CALM      30.21R
MOOSE LAKE     CLEAR     36  36 100 SW3       30.16S
HINCKLEY       FAIR      37  37 100 CALM      30.19S
CLOQUET        CLEAR     45  36  70 SW5       30.15F
MCGREGOR       CLEAR     43  37  81 CALM      30.16F
$$
MNZ071>073-080-081-089-090-097-098-160500-
   Southwest Minnesota

CITY           SKY/WX    TMP DP  RH WIND       PRES   REMARKS
MONTEVIDEO     CLEAR     45  39  81 W3        30.23S
GRANITE FALLS  CLEAR     38  37  95 S3        30.24R
CANBY          CLEAR     42  39  90 SW3       30.24R
MARSHALL       CLEAR     43  37  81 CALM      30.22S
REDWOOD FALLS  CLEAR     46  39  76 CALM      30.22F
OLIVIA         CLEAR     45  39  81 CALM      30.22S
PIPESTONE      CLEAR     46 N/A N/A CALM      30.24S
WINDOM         CLEAR     43  39  87 CALM      30.24S
WORTHINGTON    CLEAR     43  39  87 SW3       30.25S
JACKSON        CLEAR     43  39  87 CALM      30.25S
TRACY          CLEAR     47  42  83 CALM      30.24S
SLAYTON        CLEAR     44  40  88 CALM      30.25S
$$
MNZ065>067-074>077-082>085-091>093-160500-
   South Central Minnesota

CITY           SKY/WX    TMP DP  RH WIND       PRES   REMARKS
MANKATO        CLEAR     46  37  71 S3        30.23S
NEW ULM        CLEAR     43  43 100 CALM      30.23S
ST JAMES       CLEAR     45  41  87 CALM      30.24F
FAIRMONT       CLEAR     45  37  76 CALM      30.24S
GLENCOE        CLEAR     45  40  85 CALM      30.22S
FARIBAULT      CLEAR     43  37  81 CALM      30.23S
OWATONNA       CLEAR     41  39  93 CALM      30.23S
WASECA         CLEAR     37  34  87 CALM      30.25S
ALBERT LEA     CLEAR     43  43 100 CALM      30.24R
$$
MNZ078>079-086>088-094>096-160500-
   Southeast Minnesota

CITY           SKY/WX    TMP DP  RH WIND       PRES   REMARKS
ROCHESTER      CLEAR     45  39  79 W6        30.23F
RED WING       CLEAR     43  41  93 CALM      30.22S
STANTON        CLEAR     43  40  89 CALM      30.21S
DODGE CENTER   PTCLDY    43  39  87 W5        30.23S
WINONA         CLEAR     46  45  93 CALM      30.23S
AUSTIN         CLEAR     43  41  93 CALM      30.24R
PRESTON        CLEAR     45  43  93 W5        30.24R
$$
ABBREVIATIONS USED IN REMARKS
   TC - TEMPERATURES IN CELSIUS
  WCI - WIND CHILL INDEX
   HX - HEAT INDEX
  VSB - VISIBILITY
$$


USA.gov is the U.S. government's official web portal to all federal, state and local government web resources and services.